{"data":{"norad_id":67903,"epoch":"2026-09-19T06:41:48.578208Z","epoch_age_seconds":168697,"freshness":"FRESH","line1":"1 67903U 26035AA  26262.27903447  .00014496  00000+0  45024-3 0  9996","line2":"2 67903  97.2855 194.1136 0001324  98.7710 261.3683 15.33462155 33651","mean_motion":15.33462155,"eccentricity":0.0001324,"inclination_deg":97.2855,"raan_deg":194.1136,"arg_perigee_deg":98.771,"mean_anomaly_deg":261.3683,"bstar":0.00045024,"rev_number":3365,"period_min":93.905154118394,"perigee_km":464.58603724623,"apogee_km":466.39823024084,"semimajor_km":6843.6291337435,"source":"CELESTRAK","updated_at":"2026-09-20T09:00:43.700584Z"}}